Location: Unspecified
(0.0000°N, 0.0000°E)
Time: 10:39:23
(UTC+00:00)

Envisat - Pass Details

Date: 02 February 2021
Orbit: 764 x 766 km, 98.1° (Epoch: 27 February)

Event Time Altitude Azimuth Distance (km) Brightness Sun altitude
Rises 04:49:27 0° 27° (NNE) 3,213 6.3 -20.1°
Reaches altitude 10° 04:51:54 10° 35° (NE) 2,290 5.7 -19.5°
Maximum altitude 04:56:33 38° 102° (ESE) 1,162 4.5 -18.4°
Drops below altitude 10° 05:01:12 10° 169° (S) 2,299 5.8 -17.3°
Sets 05:03:39 0° 177° (S) 3,227 6.5 -16.7°
